Weather History for Astoria, OR

Change the Weather History Date:

Friday, January 24, 2014

  Actual Average Record
Temperature  
Mean Temperature 50 °F 44 °F  
Max Temperature 60 °F 50 °F 64 °F (2006)
Min Temperature 39 °F 38 °F 17 °F (1949)
Degree Days  
Heating Degree Days 15 21  
Month to date heating degree days 475 513  
Since 1 July heating degree days 2663 2619  
Cooling Degree Days 0 0  
Month to date cooling degree days 0 0  
Year to date cooling degree days 0 0  
Moisture  
Dew Point 31 °F    
Average Humidity 54    
Maximum Humidity 76    
Minimum Humidity 32    
Precipitation  
Precipitation 0.00 in 0.29 in 2.96 in (1912)
Month to date precipitation 4.23 8.12  
Year to date precipitation 4.23 8.12  
Sea Level Pressure  
Sea Level Pressure 30.26 in    
Wind  
Wind Speed 10 mph (East)    
Max Wind Speed 18 mph    
Max Gust Speed 21 mph    
Visibility 10 miles    
Events      
T = Trace of Precipitation, MM = Missing Value Source: NWS Daily Summary

Daily Weather History Graph

Daily Weather History Graph

Search for Another Location

Airport:

Trip Planner

Search our weather history database for the weather conditions in past years. The results will help you decide how hot, cold, wet, or windy it might be!

Date:

Astronomy

Jan. 24, 2014 Rise Set
Actual Time 7:46 AM PST 5:09 PM PST
Civil Twilight 7:14 AM PST 5:41 PM PST
Nautical Twilight 6:37 AM PST 6:18 PM PST
Astronomical Twilight 6:02 AM PST 6:53 PM PST
Moon 1:15 AM PST (1/24) 11:34 AM PST (1/24)
Length of Visible Light 10h 27m
Length of Day
9h 22m
Last Quarter, 43% of the Moon is Illuminated
Jan 24
Last Quarter
Jan 30
New
Feb 6
First Quarter
Feb 14
Full
Feb 22
Last Quarter

Hourly Weather History & Observations

Time (PST) Temp. Windchill Dew Point Humidity Pressure Visibility Wind Dir Wind Speed Gust Speed Precip Events Conditions
12:55 AM 45.0 °F 38.5 °F 32.0 °F 60% 30.29 in 10.0 mi East 13.8 mph - N/A   Clear
1:55 AM 43.0 °F 36.4 °F 32.0 °F 65% 30.30 in 10.0 mi East 12.7 mph - N/A   Clear
2:55 AM 45.0 °F 38.9 °F 30.9 °F 58% 30.29 in 10.0 mi East 12.7 mph - N/A   Clear
3:55 AM 42.1 °F 35.2 °F 30.0 °F 62% 30.30 in 10.0 mi East 12.7 mph - N/A   Clear
4:55 AM 45.0 °F 40.1 °F 30.0 °F 56% 30.28 in 10.0 mi ESE 9.2 mph - N/A   Clear
5:55 AM 44.1 °F 38.1 °F 30.0 °F 58% 30.27 in 10.0 mi East 11.5 mph - N/A   Clear
6:55 AM 43.0 °F 36.8 °F 30.0 °F 60% 30.27 in 10.0 mi East 11.5 mph - N/A   Clear
7:55 AM 41.0 °F 34.7 °F 30.0 °F 65% 30.27 in 10.0 mi East 10.4 mph - N/A   Clear
8:55 AM 44.1 °F 40.8 °F 30.9 °F 60% 30.28 in 10.0 mi East 5.8 mph - N/A   Clear
9:55 AM 48.0 °F - 32.0 °F 54% 30.30 in 10.0 mi East 9.2 mph - N/A   Clear
10:55 AM 52.0 °F - 33.1 °F 49% 30.30 in 10.0 mi ENE 8.1 mph - N/A   Clear
11:55 AM 55.9 °F - 33.1 °F 42% 30.29 in 10.0 mi East 10.4 mph - N/A   Clear
12:55 PM 59.0 °F - 30.9 °F 35% 30.27 in 10.0 mi ENE 15.0 mph - N/A   Clear
1:55 PM 60.1 °F - 30.9 °F 33% 30.24 in 10.0 mi ENE 15.0 mph - N/A   Clear
2:55 PM 59.0 °F - 33.1 °F 38% 30.23 in 10.0 mi ENE 10.4 mph - N/A   Clear
3:55 PM 59.0 °F - 30.9 °F 35% 30.22 in 10.0 mi East 8.1 mph - N/A   Clear
4:55 PM 55.9 °F - 28.9 °F 36% 30.21 in 10.0 mi ENE 13.8 mph - N/A   Clear
5:55 PM 51.1 °F - 30.9 °F 46% 30.22 in 10.0 mi ENE 4.6 mph - N/A   Clear
6:55 PM 46.9 °F - 32.0 °F 56% 30.22 in 10.0 mi Variable 5.8 mph - N/A   Clear
7:55 PM 44.1 °F 41.5 °F 33.1 °F 65% 30.23 in 10.0 mi East 4.6 mph - N/A   Clear
8:55 PM 44.1 °F 41.5 °F 33.1 °F 65% 30.24 in 10.0 mi East 4.6 mph - N/A   Clear
9:55 PM 43.0 °F 36.4 °F 30.9 °F 62% 30.23 in 10.0 mi ENE 12.7 mph - N/A   Clear
10:55 PM 44.1 °F 37.4 °F 28.9 °F 55% 30.26 in 10.0 mi ENE 13.8 mph - N/A   Clear
11:55 PM 41.0 °F 39.0 °F 28.9 °F 62% 30.27 in 10.0 mi ESE 3.5 mph - N/A   Clear